Flag for U.S.A. Weather past 2 weeks in Tyler, Texas, U.S.A.

Now
67 °F

Clear.


Feels Like: 67 °F
Forecast: 67 / 86 °F
Wind: 7 mph from Southeast

Location: Tyler Pounds Field

Current Time: Jun 3, 2015 at 7:07:08 AM

Latest Report: Jun 3, 2015 at 5:53 AM


Visibility: 10 mi

Pressure: 29.93 "Hg

Humidity: 85%

Dew point: 62 °F

Location of TylerLocation

Historic Weather in Tyler — Graph

°F

Tyler temperature yesterday

Maximum temperature yesterday: 87 °F (at 3:53 PM)
Minimum temperature yesterday: 66 °F (at 4:53 AM)
Average temperature yesterday: 76 °F

Past Weeks' High & Low Weather Summary

 TemperatureHumidityPressure
High89 °F (May 28, 3:53 PM)100% (May 30, 10:53 AM)30.19 "Hg (May 30, 10:53 AM)
Low58 °F (May 22, 6:53 AM)45% (Jun 2, 1:53 PM)29.82 "Hg (May 29, 8:53 AM)
Average73 °F78%30.01 "Hg
* Reported May 19 5:53 AM — Jun 3 5:53 AM, Tyler, Weather by CustomWeather, © 2015

Note: Actual official high and low records may vary slightly from our data, if they occured in-between our weather recording intervals... More about our weather records

Advertising

Tyler weather history for previous 24 hours

 ConditionsComfort  
Time TempWeatherWind HumidityBarometerVisibility
5:53 AM
Wed, Jun 3
67 °FClear.7 mph85%29.93 "Hg10 mi
4:53 AM67 °FClear.6 mph85%29.92 "Hg10 mi
3:53 AM68 °FClear.6 mph84%29.92 "Hg10 mi
2:53 AM69 °FClear.7 mph81%29.92 "Hg10 mi
1:53 AM69 °FClear.5 mph81%29.93 "Hg10 mi
12:53 AM71 °FClear.7 mph76%29.94 "Hg10 mi
11:53 PM
Tue, Jun 2
72 °FClear.6 mph76%29.94 "Hg10 mi
10:53 PM73 °FClear.8 mph74%29.95 "Hg10 mi
9:53 PM75 °FClear.7 mph69%29.93 "Hg10 mi
8:53 PM77 °FSunny.5 mph66%29.92 "Hg10 mi
7:53 PM80 °FPassing clouds.No wind60%29.93 "Hg10 mi
6:53 PM83 °FScattered clouds.6 mph51%29.92 "Hg10 mi
5:53 PM86 °FPartly sunny.7 mph45%29.93 "Hg10 mi
4:53 PM85 °FPartly sunny.7 mph45%29.93 "Hg10 mi
3:53 PM87 °FScattered clouds.No wind45%29.95 "Hg10 mi
2:53 PM85 °FPassing clouds.3 mph45%29.97 "Hg10 mi
1:53 PM84 °FScattered clouds.No wind45%30.00 "Hg10 mi
12:53 PM83 °FPassing clouds.6 mph50%30.02 "Hg10 mi
11:53 AM82 °FPassing clouds.6 mph55%30.03 "Hg10 mi
10:53 AM79 °FSunny.6 mph62%30.03 "Hg10 mi
9:53 AM77 °FSunny.6 mph71%30.05 "Hg10 mi
8:53 AM74 °FSunny.8 mph79%30.05 "Hg10 mi
7:53 AM71 °FSunny.7 mph84%30.04 "Hg10 mi
Weather by CustomWeather, © 2015

See weather overviewHow to use our weather pages